TimeMST,TemperatureF,Dew PointF,Humidity,Sea Level PressureIn,VisibilityMPH,Wind Direction,Wind SpeedMPH,Gust SpeedMPH,PrecipitationIn,Events,Conditions,WindDirDegrees,DateUTC
12:53 AM,36.0,21.9,57,29.78,10.0,WSW,4.6,-,N/A,,Clear,250,2012-11-08 07:53:00
1:53 AM,34.0,21.9,61,29.78,10.0,West,6.9,-,N/A,,Clear,270,2012-11-08 08:53:00
2:53 AM,28.9,21.0,72,29.80,10.0,WNW,6.9,-,N/A,,Clear,290,2012-11-08 09:53:00
3:53 AM,44.1,26.1,49,29.84,10.0,North,17.3,21.9,N/A,,Clear,350,2012-11-08 10:53:00
4:53 AM,41.0,32.0,70,29.92,10.0,North,11.5,-,N/A,,Clear,10,2012-11-08 11:53:00
5:53 AM,39.0,32.0,76,29.94,10.0,North,17.3,-,N/A,,Clear,360,2012-11-08 12:53:00
6:53 AM,37.9,30.0,73,30.00,10.0,North,8.1,-,N/A,,Clear,360,2012-11-08 13:53:00
7:53 AM,41.0,30.9,67,30.03,10.0,NNW,9.2,-,N/A,,Clear,340,2012-11-08 14:53:00
8:53 AM,46.0,30.9,56,30.03,10.0,North,15.0,-,N/A,,Clear,10,2012-11-08 15:53:00
9:53 AM,48.9,30.0,48,30.02,10.0,NNE,16.1,-,N/A,,Clear,30,2012-11-08 16:53:00
10:53 AM,52.0,30.0,43,29.97,10.0,NE,15.0,-,N/A,,Clear,40,2012-11-08 17:53:00
11:53 AM,54.0,30.9,41,29.96,10.0,NE,15.0,-,N/A,,Clear,50,2012-11-08 18:53:00
12:53 PM,54.0,30.9,41,29.92,10.0,NE,13.8,-,N/A,,Clear,50,2012-11-08 19:53:00
1:53 PM,54.0,32.0,43,29.91,10.0,East,11.5,-,N/A,,Clear,80,2012-11-08 20:53:00
2:53 PM,54.0,30.9,41,29.90,10.0,East,13.8,-,N/A,,Clear,90,2012-11-08 21:53:00
3:53 PM,52.0,30.9,45,29.87,10.0,East,11.5,-,N/A,,Clear,90,2012-11-08 22:53:00
4:53 PM,42.1,30.0,62,29.89,10.0,East,10.4,-,N/A,,Clear,90,2012-11-08 23:53:00
5:53 PM,35.1,28.0,76,29.93,10.0,East,8.1,-,N/A,,Clear,90,2012-11-09 00:53:00
6:53 PM,35.1,28.9,78,29.94,10.0,ESE,6.9,-,N/A,,Clear,110,2012-11-09 01:53:00
7:53 PM,30.0,27.0,88,29.93,10.0,ESE,6.9,-,N/A,,Clear,110,2012-11-09 02:53:00
8:53 PM,33.1,30.0,89,29.90,10.0,Calm,Calm,-,N/A,,Clear,0,2012-11-09 03:53:00
9:53 PM,32.0,28.9,88,29.90,10.0,SE,4.6,-,N/A,,Clear,130,2012-11-09 04:53:00
10:53 PM,28.9,28.0,96,29.88,10.0,East,3.5,-,N/A,,Clear,80,2012-11-09 05:53:00
11:53 PM,28.9,27.0,92,29.86,9.0,East,3.5,-,N/A,,Clear,100,2012-11-09 06:53:00